,,,PA_Meas_PMT16A,,PR_Meas_QMR101_102,,RH_Meas_QMH101,,SR_Meas_QMS101,,TA_Meas_QMH101,,GenWind,,GenWind,
date,time,status,PA,status,PR,status,RH,status,SR,status,TA,status,DirAvg,status,SpdAvg,
2009-01-30, 00:00:04,VALID,998.71,VALID,0,VALID,93.7909,VALID,0,VALID,23.6054,VALID,99,VALID,0.200391,
2009-01-30, 00:01:04,VALID,998.69,VALID,0,VALID,93.7375,VALID,0,VALID,23.6054,VALID,111,VALID,0.171484,
2009-01-30, 00:02:04,VALID,998.68,VALID,0,VALID,93.6765,VALID,0.112286,VALID,23.5859,VALID,89,VALID,0.246094,
2009-01-30, 00:03:04,VALID,998.692,VALID,0,VALID,93.6383,VALID,0,VALID,23.5664,VALID,89,VALID,0.303516,
2009-01-30, 00:04:04,VALID,998.682,VALID,0,VALID,93.6154,VALID,0,VALID,23.5664,VALID,64,VALID,0.358594,
2009-01-30, 00:05:04,VALID,998.687,VALID,0,VALID,93.5086,VALID,0,VALID,23.5469,VALID,52,VALID,0.263672,
2009-01-30, 00:06:04,VALID,998.699,VALID,0,VALID,93.4476,VALID,0,VALID,23.5274,VALID,52,VALID,0.332812,
2009-01-30, 00:07:04,VALID,998.689,VALID,0,VALID,93.4094,VALID,0,VALID,23.5079,VALID,66,VALID,0.483594,
2009-01-30, 00:08:04,VALID,998.685,VALID,0,VALID,93.4247,VALID,0.112286,VALID,23.4884,VALID,66,VALID,0.341406,
2009-01-30, 00:09:04,VALID,998.702,VALID,0,VALID,93.4171,VALID,0,VALID,23.4493,VALID,66,VALID,0.105469,
2009-01-30, 00:10:04,VALID,998.679,VALID,0,VALID,93.4934,VALID,0,VALID,23.4493,VALID,66,VALID,0,
2009-01-30, 00:11:04,VALID,998.687,VALID,0,VALID,93.5697,VALID,0,VALID,23.4103,VALID,66,VALID,0,
2009-01-30, 00:12:04,VALID,998.654,VALID,0,VALID,93.7146,VALID,0,VALID,23.4103,VALID,66,VALID,0,
2009-01-30, 00:13:04,VALID,998.63,VALID,0,VALID,93.8596,VALID,0,VALID,23.3908,VALID,66,VALID,0,
2009-01-30, 00:14:04,VALID,998.605,VALID,0,VALID,93.9206,VALID,0,VALID,23.4103,VALID,66,VALID,0,
2009-01-30, 00:15:04,VALID,998.602,VALID,0,VALID,93.9817,VALID,0,VALID,23.3908,VALID,66,VALID,0,
2009-01-30, 00:16:04,VALID,998.562,VALID,0,VALID,94.0656,VALID,0,VALID,23.3695,VALID,66,VALID,0.157422,
2009-01-30, 00:17:04,VALID,998.547,VALID,0,VALID,94.0656,VALID,0,VALID,23.3908,VALID,66,VALID,0,
2009-01-30, 00:18:04,VALID,998.525,VALID,0,VALID,94.0427,VALID,0,VALID,23.3713,VALID,66,VALID,0.0046875,
2009-01-30, 00:19:04,VALID,998.538,VALID,0,VALID,94.1571,VALID,0,VALID,23.3908,VALID,50,VALID,0.457031,
2009-01-30, 00:20:04,VALID,998.496,VALID,0,VALID,94.119,VALID,0,VALID,23.3908,VALID,50,VALID,0.267578,
2009-01-30, 00:21:04,VALID,998.489,VALID,0,VALID,93.9893,VALID,0,VALID,23.3908,VALID,50,VALID,0.373828,
2009-01-30, 00:22:04,VALID,998.502,VALID,0,VALID,93.9588,VALID,0,VALID,23.3908,VALID,50,VALID,0.261719,
2009-01-30, 00:23:04,VALID,998.484,VALID,0,VALID,93.9664,VALID,0,VALID,23.3695,VALID,50,VALID,0.246094,
2009-01-30, 00:24:04,VALID,998.491,VALID,0,VALID,93.974,VALID,0,VALID,23.3695,VALID,50,VALID,0.31875,
2009-01-30, 00:25:04,VALID,998.461,VALID,0,VALID,93.913,VALID,0,VALID,23.3908,VALID,45,VALID,0.539063,
2009-01-30, 00:26:04,VALID,998.467,VALID,0,VALID,94.0045,VALID,0,VALID,23.3695,VALID,41,VALID,0.614844,
2009-01-30, 00:27:04,VALID,998.444,VALID,0,VALID,93.9817,VALID,0,VALID,23.3908,VALID,39,VALID,0.521484,
2009-01-30, 00:28:04,VALID,998.482,VALID,0,VALID,94.1266,VALID,0,VALID,23.3908,VALID,11,VALID,0.724609,
2009-01-30, 00:29:04,VALID,998.468,VALID,0,VALID,94.3021,VALID,0,VALID,23.3908,VALID,10,VALID,0.598047,
2009-01-30, 00:30:04,VALID,998.455,VALID,0,VALID,94.4165,VALID,0.112286,VALID,23.35,VALID,10,VALID,0.571484,
2009-01-30, 00:31:04,VALID,998.448,VALID,0,VALID,94.4776,VALID,0,VALID,23.3518,VALID,10,VALID,0.527734,
2009-01-30, 00:32:04,VALID,998.442,VALID,0,VALID,94.5386,VALID,0,VALID,23.3323,VALID,10,VALID,0.397266,
2009-01-30, 00:33:04,VALID,998.424,VALID,0,VALID,94.6149,VALID,0,VALID,23.3323,VALID,10,VALID,0.422266,
2009-01-30, 00:34:04,VALID,998.444,VALID,0,VALID,94.676,VALID,0,VALID,23.311,VALID,10,VALID,0.351172,
2009-01-30, 00:35:04,VALID,998.437,VALID,0,VALID,94.7294,VALID,0,VALID,23.3127,VALID,10,VALID,0.319141,
2009-01-30, 00:36:04,VALID,998.43,VALID,0,VALID,94.8362,VALID,0,VALID,23.334,VALID,10,VALID,0.508984,
2009-01-30, 00:37:04,VALID,998.437,VALID,0,VALID,94.8591,VALID,0,VALID,23.3145,VALID,10,VALID,0.351172,
2009-01-30, 00:38:04,VALID,998.412,VALID,0,VALID,94.8285,VALID,0,VALID,23.3145,VALID,10,VALID,0.484766,
2009-01-30, 00:39:04,VALID,998.44,VALID,0,VALID,94.8896,VALID,0,VALID,23.3145,VALID,10,VALID,0.532812,
2009-01-30, 00:40:04,VALID,998.435,VALID,0,VALID,94.8972,VALID,0,VALID,23.295,VALID,10,VALID,0.498047,
2009-01-30, 00:41:04,VALID,998.455,VALID,0,VALID,94.7904,VALID,0,VALID,23.2755,VALID,10,VALID,0.296094,
2009-01-30, 00:42:04,VALID,998.431,VALID,0,VALID,94.8209,VALID,0,VALID,23.2755,VALID,10,VALID,0.0738281,
2009-01-30, 00:43:04,VALID,998.459,VALID,0,VALID,94.8362,VALID,0,VALID,23.256,VALID,10,VALID,0,
2009-01-30, 00:44:04,VALID,998.448,VALID,0,VALID,94.8285,VALID,0,VALID,23.2365,VALID,10,VALID,0,
2009-01-30, 00:45:04,VALID,998.432,VALID,0,VALID,94.8591,VALID,0,VALID,23.2365,VALID,10,VALID,0.196484,
2009-01-30, 00:46:04,VALID,998.416,VALID,0,VALID,94.9811,VALID,0,VALID,23.2152,VALID,10,VALID,0.387109,
2009-01-30, 00:47:04,VALID,998.384,VALID,0,VALID,95.0117,VALID,0,VALID,23.2365,VALID,10,VALID,0.528125,
2009-01-30, 00:48:04,VALID,998.382,VALID,0,VALID,95.0193,VALID,0,VALID,23.2365,VALID,65,VALID,0.628906,
2009-01-30, 00:49:04,VALID,998.368,VALID,0,VALID,94.9659,VALID,0,VALID,23.2347,VALID,72,VALID,0.654297,
2009-01-30, 00:50:04,VALID,998.342,VALID,0,VALID,94.9354,VALID,0,VALID,23.2737,VALID,77,VALID,0.684375,
2009-01-30, 00:51:04,VALID,998.375,VALID,0,VALID,94.8743,VALID,0,VALID,23.2932,VALID,80,VALID,0.745703,
2009-01-30, 00:52:04,VALID,998.376,VALID,0,VALID,94.8972,VALID,0,VALID,23.3127,VALID,79,VALID,0.673437,
2009-01-30, 00:53:04,VALID,998.372,VALID,0,VALID,94.8591,VALID,0,VALID,23.3323,VALID,78,VALID,0.569531,
2009-01-30, 00:54:04,VALID,998.359,VALID,0,VALID,94.8362,VALID,0,VALID,23.3518,VALID,78,VALID,0.473047,
2009-01-30, 00:55:04,VALID,998.36,VALID,0,VALID,94.798,VALID,0,VALID,23.3305,VALID,75,VALID,0.481641,
2009-01-30, 00:56:04,VALID,998.345,VALID,0,VALID,94.7523,VALID,0,VALID,23.3713,VALID,73,VALID,0.290625,
2009-01-30, 00:57:04,VALID,998.316,VALID,0,VALID,94.7217,VALID,0,VALID,23.3713,VALID,73,VALID,0.252734,
2009-01-30, 00:58:04,VALID,998.306,VALID,0,VALID,94.7294,VALID,0,VALID,23.3518,VALID,73,VALID,0.258203,
2009-01-30, 00:59:04,VALID,998.279,VALID,0,VALID,94.7065,VALID,0,VALID,23.3713,VALID,73,VALID,0.450391,
2009-01-30, 01:00:04,VALID,998.254,VALID,0,VALID,94.7217,VALID,0,VALID,23.3713,VALID,73,VALID,0.515234,
2009-01-30, 01:01:04,VALID,998.243,VALID,0,VALID,94.6454,VALID,0,VALID,23.3908,VALID,73,VALID,0.454297,
2009-01-30, 01:02:04,VALID,998.229,VALID,0,VALID,94.5844,VALID,0,VALID,23.4103,VALID,73,VALID,0.602344,
2009-01-30, 01:03:04,VALID,998.199,VALID,0,VALID,94.5157,VALID,0,VALID,23.4103,VALID,74,VALID,0.465234,
2009-01-30, 01:04:04,VALID,998.195,VALID,0,VALID,94.5539,VALID,0,VALID,23.4298,VALID,93,VALID,0.644922,
2009-01-30, 01:05:04,VALID,998.193,VALID,0,VALID,94.4394,VALID,0,VALID,23.4298,VALID,97,VALID,0.670313,
2009-01-30, 01:06:04,VALID,998.2,VALID,0,VALID,94.4089,VALID,0,VALID,23.4493,VALID,97,VALID,0.517969,
2009-01-30, 01:07:04,VALID,998.203,VALID,0,VALID,94.3784,VALID,0,VALID,23.4493,VALID,97,VALID,0.544531,
2009-01-30, 01:08:04,VALID,998.185,VALID,0,VALID,94.3403,VALID,0,VALID,23.4493,VALID,97,VALID,0.533203,
2009-01-30, 01:09:04,VALID,998.196,VALID,0,VALID,94.3403,VALID,0,VALID,23.4706,VALID,97,VALID,0.419922,
2009-01-30, 01:10:04,VALID,998.147,VALID,0,VALID,94.3555,VALID,0,VALID,23.4298,VALID,97,VALID,0.348047,
2009-01-30, 01:11:04,VALID,998.147,VALID,0,VALID,94.3555,VALID,0,VALID,23.4493,VALID,97,VALID,0.358594,
2009-01-30, 01:12:04,VALID,998.159,VALID,0,VALID,94.4013,VALID,0,VALID,23.4493,VALID,97,VALID,0.217969,
2009-01-30, 01:13:04,VALID,998.126,VALID,0,VALID,94.3937,VALID,0,VALID,23.4493,VALID,97,VALID,0.297656,
2009-01-30, 01:14:04,VALID,998.132,VALID,0,VALID,94.4547,VALID,0,VALID,23.4493,VALID,97,VALID,0.267578,
2009-01-30, 01:15:04,VALID,998.133,VALID,0,VALID,94.4776,VALID,0,VALID,23.428,VALID,97,VALID,0.0359375,
2009-01-30, 01:16:04,VALID,998.109,VALID,0,VALID,94.5234,VALID,0,VALID,23.4493,VALID,97,VALID,0.0226563,
2009-01-30, 01:17:04,VALID,998.113,VALID,0,VALID,94.4547,VALID,0,VALID,23.4298,VALID,97,VALID,0.462109,
2009-01-30, 01:18:04,VALID,998.115,VALID,0,VALID,94.4623,VALID,0,VALID,23.4298,VALID,97,VALID,0.524609,
2009-01-30, 01:19:04,VALID,998.092,VALID,0,VALID,94.4318,VALID,0,VALID,23.4493,VALID,97,VALID,0.583203,
2009-01-30, 01:20:04,VALID,998.106,VALID,0,VALID,94.4165,VALID,0,VALID,23.4298,VALID,95,VALID,0.582422,
2009-01-30, 01:21:04,VALID,998.126,VALID,0,VALID,94.386,VALID,0,VALID,23.4493,VALID,94,VALID,0.869531,
2009-01-30, 01:22:04,VALID,998.104,VALID,0,VALID,94.4318,VALID,0,VALID,23.4298,VALID,94,VALID,0.553906,
2009-01-30, 01:23:04,VALID,998.087,VALID,0,VALID,94.4394,VALID,0,VALID,23.4103,VALID,104,VALID,0.629687,
2009-01-30, 01:24:04,VALID,998.075,VALID,0,VALID,94.5005,VALID,0,VALID,23.4085,VALID,110,VALID,0.607031,
2009-01-30, 01:25:04,VALID,998.055,VALID,0,VALID,94.5234,VALID,0,VALID,23.4103,VALID,119,VALID,0.622266,
2009-01-30, 01:26:04,VALID,998.097,VALID,0,VALID,94.5234,VALID,0,VALID,23.4103,VALID,119,VALID,0.536719,
2009-01-30, 01:27:04,VALID,998.106,VALID,0,VALID,94.5539,VALID,0,VALID,23.3908,VALID,119,VALID,0.423438,
2009-01-30, 01:28:04,VALID,998.111,VALID,0,VALID,94.5462,VALID,0,VALID,23.3908,VALID,119,VALID,0.329688,
2009-01-30, 01:29:04,VALID,998.145,VALID,0,VALID,94.5234,VALID,0,VALID,23.3713,VALID,119,VALID,0.458594,
2009-01-30, 01:30:04,VALID,998.171,VALID,0,VALID,94.4623,VALID,0,VALID,23.3518,VALID,119,VALID,0.402344,
2009-01-30, 01:31:04,VALID,998.178,VALID,0,VALID,94.5005,VALID,0,VALID,23.3323,VALID,119,VALID,0.530078,
2009-01-30, 01:32:04,VALID,998.162,VALID,0,VALID,94.4928,VALID,0,VALID,23.3323,VALID,119,VALID,0.453516,
2009-01-30, 01:33:04,VALID,998.165,VALID,0,VALID,94.5386,VALID,0,VALID,23.3323,VALID,119,VALID,0.435547,
2009-01-30, 01:34:04,VALID,998.165,VALID,0,VALID,94.4928,VALID,0,VALID,23.3323,VALID,121,VALID,0.296484,
2009-01-30, 01:35:04,VALID,998.181,VALID,0,VALID,94.5081,VALID,0,VALID,23.3518,VALID,121,VALID,0.298438,
2009-01-30, 01:36:04,VALID,998.144,VALID,0,VALID,94.5768,VALID,0,VALID,23.3518,VALID,124,VALID,0.610547,
2009-01-30, 01:37:04,VALID,998.142,VALID,0,VALID,94.5844,VALID,0,VALID,23.3323,VALID,130,VALID,0.59375,
2009-01-30, 01:38:04,VALID,998.173,VALID,0,VALID,94.6073,VALID,0,VALID,23.3323,VALID,130,VALID,0.453906,
2009-01-30, 01:39:04,VALID,998.176,VALID,0,VALID,94.5768,VALID,0,VALID,23.3323,VALID,157,VALID,0.492188,
2009-01-30, 01:40:04,VALID,998.128,VALID,0,VALID,94.5157,VALID,0,VALID,23.3127,VALID,156,VALID,0.449219,
2009-01-30, 01:41:04,VALID,998.153,VALID,0,VALID,94.531,VALID,0,VALID,23.3127,VALID,144,VALID,0.262109,
2009-01-30, 01:42:04,VALID,998.14,VALID,0,VALID,94.4852,VALID,0,VALID,23.3127,VALID,144,VALID,0.222656,
2009-01-30, 01:43:04,VALID,998.126,VALID,0,VALID,94.4852,VALID,0,VALID,23.3127,VALID,144,VALID,0.503125,
2009-01-30, 01:44:04,VALID,998.109,VALID,0,VALID,94.4013,VALID,0,VALID,23.2932,VALID,144,VALID,0.476953,
2009-01-30, 01:45:04,VALID,998.162,VALID,0,VALID,94.3403,VALID,0,VALID,23.2932,VALID,144,VALID,0.298047,
2009-01-30, 01:46:04,VALID,998.132,VALID,0,VALID,94.2716,VALID,0.112286,VALID,23.2932,VALID,144,VALID,0.348437,
2009-01-30, 01:47:04,VALID,998.144,VALID,0,VALID,94.2182,VALID,0,VALID,23.3127,VALID,137,VALID,0.44375,
2009-01-30, 01:48:04,VALID,998.114,VALID,0,VALID,94.1343,VALID,0,VALID,23.2932,VALID,133,VALID,0.451562,
2009-01-30, 01:49:04,VALID,998.109,VALID,0,VALID,94.0808,VALID,0,VALID,23.2737,VALID,108,VALID,0.554688,
2009-01-30, 01:50:04,VALID,998.097,VALID,0,VALID,93.9283,VALID,0,VALID,23.2329,VALID,105,VALID,0.287891,
2009-01-30, 01:51:04,VALID,998.046,VALID,0,VALID,93.9283,VALID,0,VALID,23.2542,VALID,105,VALID,0.363281,
2009-01-30, 01:52:04,VALID,998.036,VALID,0,VALID,93.8825,VALID,0,VALID,23.2347,VALID,105,VALID,0.178906,
2009-01-30, 01:53:04,VALID,998.006,VALID,0,VALID,93.7604,VALID,0,VALID,23.2152,VALID,105,VALID,0.178125,
2009-01-30, 01:54:04,VALID,997.962,VALID,0,VALID,93.6688,VALID,0,VALID,23.1957,VALID,105,VALID,0,
2009-01-30, 01:55:04,VALID,997.949,VALID,0,VALID,93.646,VALID,0,VALID,23.1566,VALID,105,VALID,0,
2009-01-30, 01:56:04,VALID,997.956,VALID,0,VALID,93.646,VALID,0,VALID,23.1371,VALID,105,VALID,0.164844,
2009-01-30, 01:57:04,VALID,997.947,VALID,0,VALID,93.6078,VALID,0,VALID,23.1371,VALID,124,VALID,0.235156,
2009-01-30, 01:58:04,VALID,997.969,VALID,0,VALID,93.6765,VALID,0,VALID,23.1176,VALID,112,VALID,0.532422,
2009-01-30, 01:59:04,VALID,997.96,VALID,0,VALID,93.6231,VALID,0.112286,VALID,23.1176,VALID,115,VALID,0.420703,
2009-01-30, 02:00:04,VALID,997.961,VALID,0,VALID,93.5849,VALID,0,VALID,23.1371,VALID,115,VALID,0.401953,
2009-01-30, 02:01:04,VALID,997.961,VALID,0,VALID,93.501,VALID,0,VALID,23.1371,VALID,125,VALID,0.552344,
2009-01-30, 02:02:04,VALID,997.924,VALID,0,VALID,93.3713,VALID,0,VALID,23.1371,VALID,135,VALID,0.566406,
2009-01-30, 02:03:04,VALID,997.974,VALID,0,VALID,93.2568,VALID,0,VALID,23.1371,VALID,136,VALID,0.197266,
2009-01-30, 02:04:04,VALID,997.964,VALID,0,VALID,93.1424,VALID,0,VALID,23.1584,VALID,136,VALID,0.000390625,
2009-01-30, 02:05:04,VALID,997.953,VALID,0,VALID,93.1119,VALID,0,VALID,23.1176,VALID,136,VALID,0.2875,
2009-01-30, 02:06:04,VALID,997.986,VALID,0,VALID,93.1729,VALID,0,VALID,23.1176,VALID,136,VALID,0.213281,
2009-01-30, 02:07:04,VALID,997.976,VALID,0,VALID,93.1958,VALID,0,VALID,23.0981,VALID,123,VALID,0.292578,
2009-01-30, 02:08:04,VALID,997.985,VALID,0,VALID,93.1577,VALID,0,VALID,23.0981,VALID,123,VALID,0,
2009-01-30, 02:09:04,VALID,997.921,VALID,0,VALID,93.1882,VALID,0,VALID,23.0786,VALID,123,VALID,0,
2009-01-30, 02:10:04,VALID,997.96,VALID,0,VALID,93.2645,VALID,0,VALID,23.0786,VALID,124,VALID,0.505078,
2009-01-30, 02:11:04,VALID,997.939,VALID,0,VALID,93.2645,VALID,0,VALID,23.0591,VALID,291,VALID,0.664844,
2009-01-30, 02:12:04,VALID,997.934,VALID,0,VALID,93.4018,VALID,0,VALID,23.0804,VALID,300,VALID,0.742969,
2009-01-30, 02:13:04,VALID,997.947,VALID,0,VALID,93.4323,VALID,0,VALID,23.0396,VALID,308,VALID,0.654688,
2009-01-30, 02:14:04,VALID,997.949,VALID,0,VALID,93.5315,VALID,0,VALID,23.0201,VALID,326,VALID,0.500781,
2009-01-30, 02:15:04,VALID,997.945,VALID,0,VALID,93.5773,VALID,0,VALID,23.0201,VALID,326,VALID,0.326562,
2009-01-30, 02:16:04,VALID,997.95,VALID,0,VALID,93.5239,VALID,0.112286,VALID,23.0006,VALID,326,VALID,0.1875,
2009-01-30, 02:17:04,VALID,997.976,VALID,0,VALID,93.6078,VALID,0.112286,VALID,23.0006,VALID,326,VALID,0.00117188,
2009-01-30, 02:18:04,VALID,997.979,VALID,0,VALID,93.6612,VALID,0,VALID,22.9811,VALID,326,VALID,0,
2009-01-30, 02:19:04,VALID,997.948,VALID,0,VALID,93.7909,VALID,0,VALID,22.9811,VALID,326,VALID,0.000390625,
2009-01-30, 02:20:04,VALID,997.966,VALID,0,VALID,93.8748,VALID,0,VALID,22.9811,VALID,326,VALID,0.266016,
2009-01-30, 02:21:04,VALID,997.92,VALID,0,VALID,93.8977,VALID,0,VALID,23.0006,VALID,219,VALID,0.608984,
2009-01-30, 02:22:04,VALID,997.905,VALID,0,VALID,93.9435,VALID,0,VALID,23.0396,VALID,211,VALID,0.569141,
2009-01-30, 02:23:04,VALID,997.945,VALID,0,VALID,93.7757,VALID,0,VALID,23.0786,VALID,199,VALID,0.845703,
2009-01-30, 02:24:04,VALID,997.953,VALID,0,VALID,93.5239,VALID,0,VALID,23.0981,VALID,179,VALID,0.886719,
2009-01-30, 02:25:04,VALID,997.938,VALID,0,VALID,93.2187,VALID,0,VALID,23.1566,VALID,159,VALID,0.620703,
2009-01-30, 02:26:04,VALID,997.942,VALID,0,VALID,92.9669,VALID,0,VALID,23.1957,VALID,159,VALID,0.581641,
2009-01-30, 02:27:04,VALID,997.942,VALID,0,VALID,92.738,VALID,0,VALID,23.2365,VALID,156,VALID,0.938672,
2009-01-30, 02:28:04,VALID,997.957,VALID,0,VALID,92.5931,VALID,0,VALID,23.2542,VALID,140,VALID,0.716016,
2009-01-30, 02:29:04,VALID,997.925,VALID,0,VALID,92.4863,VALID,0,VALID,23.2542,VALID,143,VALID,0.798047,
2009-01-30, 02:30:04,VALID,997.958,VALID,0,VALID,92.4481,VALID,0,VALID,23.2737,VALID,151,VALID,0.753125,
2009-01-30, 02:31:04,VALID,997.915,VALID,0,VALID,92.4481,VALID,0,VALID,23.2932,VALID,151,VALID,0.5875,
2009-01-30, 02:32:04,VALID,997.919,VALID,0,VALID,92.471,VALID,0.112286,VALID,23.2737,VALID,151,VALID,0.473047,
2009-01-30, 02:33:04,VALID,997.923,VALID,0,VALID,92.5015,VALID,0,VALID,23.2932,VALID,151,VALID,0.589844,
2009-01-30, 02:34:04,VALID,997.913,VALID,0,VALID,92.532,VALID,0,VALID,23.2542,VALID,158,VALID,0.501562,
2009-01-30, 02:35:04,VALID,997.911,VALID,0,VALID,92.5931,VALID,0,VALID,23.2737,VALID,158,VALID,0.458203,
2009-01-30, 02:36:04,VALID,997.941,VALID,0,VALID,92.6236,VALID,0,VALID,23.295,VALID,158,VALID,0.490625,
2009-01-30, 02:37:04,VALID,997.964,VALID,0,VALID,92.5931,VALID,0,VALID,23.2737,VALID,158,VALID,0.536719,
2009-01-30, 02:38:04,VALID,997.979,VALID,0,VALID,92.5778,VALID,0,VALID,23.2542,VALID,166,VALID,0.583203,
2009-01-30, 02:39:04,VALID,997.992,VALID,0,VALID,92.5702,VALID,0,VALID,23.256,VALID,169,VALID,0.721094,
2009-01-30, 02:40:04,VALID,998.012,VALID,0,VALID,92.5931,VALID,0,VALID,23.2737,VALID,168,VALID,0.563672,
2009-01-30, 02:41:04,VALID,997.988,VALID,0,VALID,92.5702,VALID,0,VALID,23.2737,VALID,162,VALID,0.735156,
2009-01-30, 02:42:04,VALID,997.99,VALID,0,VALID,92.4863,VALID,0,VALID,23.2737,VALID,162,VALID,0.806641,
2009-01-30, 02:43:04,VALID,998.002,VALID,0,VALID,92.3108,VALID,0,VALID,23.3127,VALID,162,VALID,0.594531,
2009-01-30, 02:44:04,VALID,997.974,VALID,0,VALID,92.2574,VALID,0,VALID,23.3127,VALID,161,VALID,0.824609,
2009-01-30, 02:45:04,VALID,998.008,VALID,0,VALID,92.2955,VALID,0,VALID,23.3323,VALID,160,VALID,0.899609,
2009-01-30, 02:46:04,VALID,998.014,VALID,0,VALID,92.2192,VALID,0,VALID,23.3127,VALID,159,VALID,0.878516,
2009-01-30, 02:47:04,VALID,998.012,VALID,0,VALID,92.1887,VALID,0,VALID,23.3323,VALID,159,VALID,0.557031,
2009-01-30, 02:48:04,VALID,998.011,VALID,0,VALID,92.2803,VALID,0,VALID,23.334,VALID,159,VALID,0.337109,
2009-01-30, 02:49:04,VALID,998.013,VALID,0,VALID,92.3413,VALID,0,VALID,23.2932,VALID,151,VALID,0.68125,
2009-01-30, 02:50:04,VALID,998.033,VALID,0,VALID,92.2345,VALID,0,VALID,23.2737,VALID,128,VALID,0.542578,
2009-01-30, 02:51:04,VALID,997.991,VALID,0,VALID,92.1887,VALID,0,VALID,23.2347,VALID,127,VALID,0.740234,
2009-01-30, 02:52:04,VALID,998.004,VALID,0,VALID,92.2879,VALID,0,VALID,23.2152,VALID,127,VALID,0.575,
2009-01-30, 02:53:04,VALID,998.019,VALID,0,VALID,92.4023,VALID,0,VALID,23.1957,VALID,127,VALID,0.376563,
2009-01-30, 02:54:04,VALID,997.988,VALID,0,VALID,92.4405,VALID,0,VALID,23.1566,VALID,127,VALID,0.301562,
2009-01-30, 02:55:04,VALID,997.995,VALID,0,VALID,92.4939,VALID,0.112286,VALID,23.1371,VALID,127,VALID,0.313672,
2009-01-30, 02:56:04,VALID,997.991,VALID,0,VALID,92.471,VALID,0,VALID,23.0786,VALID,127,VALID,0.245312,
2009-01-30, 02:57:04,VALID,998.004,VALID,0,VALID,92.4481,VALID,0,VALID,23.0396,VALID,127,VALID,0.226172,
2009-01-30, 02:58:04,VALID,998.032,VALID,0,VALID,92.7533,VALID,0,VALID,23.0006,VALID,127,VALID,0,
2009-01-30, 02:59:04,VALID,998.061,VALID,0,VALID,92.9974,VALID,0,VALID,22.9615,VALID,127,VALID,0,
2009-01-30, 03:00:04,VALID,998.072,VALID,0,VALID,93.1653,VALID,0,VALID,22.942,VALID,127,VALID,0.000390625,
2009-01-30, 03:01:04,VALID,998.019,VALID,0,VALID,93.3637,VALID,0,VALID,22.9225,VALID,127,VALID,0,
2009-01-30, 03:02:04,VALID,998.05,VALID,0,VALID,93.6841,VALID,0,VALID,22.9225,VALID,127,VALID,0,
2009-01-30, 03:03:04,VALID,998.009,VALID,0,VALID,93.8901,VALID,0,VALID,22.9225,VALID,127,VALID,0,
2009-01-30, 03:04:04,VALID,998.015,VALID,0,VALID,93.9893,VALID,0,VALID,22.9225,VALID,127,VALID,0,
2009-01-30, 03:05:04,VALID,997.998,VALID,0,VALID,94.1343,VALID,0,VALID,22.9225,VALID,127,VALID,0,
2009-01-30, 03:06:04,VALID,998.004,VALID,0,VALID,94.1877,VALID,0,VALID,22.9225,VALID,127,VALID,0,
2009-01-30, 03:07:04,VALID,997.99,VALID,0,VALID,94.1571,VALID,0,VALID,22.9225,VALID,127,VALID,0.3875,
2009-01-30, 03:08:04,VALID,997.971,VALID,0,VALID,94.0808,VALID,0,VALID,22.942,VALID,116,VALID,0.450781,
2009-01-30, 03:09:04,VALID,997.984,VALID,0,VALID,93.9206,VALID,0,VALID,22.9615,VALID,56,VALID,0.580859,
2009-01-30, 03:10:04,VALID,997.942,VALID,0,VALID,93.8825,VALID,0,VALID,23.0006,VALID,44,VALID,0.663281,
2009-01-30, 03:11:04,VALID,997.974,VALID,0,VALID,93.7757,VALID,0,VALID,23.0006,VALID,44,VALID,0.58125,
2009-01-30, 03:12:04,VALID,997.95,VALID,0,VALID,93.6994,VALID,0,VALID,23.0201,VALID,44,VALID,0.593359,
2009-01-30, 03:13:04,VALID,997.948,VALID,0,VALID,93.646,VALID,0,VALID,23.0413,VALID,44,VALID,0.521875,
2009-01-30, 03:14:04,VALID,997.923,VALID,0,VALID,93.6231,VALID,0,VALID,23.0006,VALID,44,VALID,0.626562,
2009-01-30, 03:15:04,VALID,997.953,VALID,0,VALID,93.7375,VALID,0,VALID,23.0006,VALID,44,VALID,0.595312,
2009-01-30, 03:16:04,VALID,997.93,VALID,0,VALID,93.8977,VALID,0,VALID,22.9811,VALID,44,VALID,0.568359,
2009-01-30, 03:17:04,VALID,997.954,VALID,0,VALID,94.0198,VALID,0,VALID,22.9811,VALID,44,VALID,0.502734,
2009-01-30, 03:18:04,VALID,997.925,VALID,0,VALID,94.0885,VALID,0,VALID,22.9615,VALID,44,VALID,0.374609,
2009-01-30, 03:19:04,VALID,997.925,VALID,0,VALID,94.1495,VALID,0,VALID,22.9615,VALID,44,VALID,0.311328,
2009-01-30, 03:20:04,VALID,997.937,VALID,0,VALID,94.2105,VALID,0,VALID,22.942,VALID,44,VALID,0.199219,
2009-01-30, 03:21:04,VALID,997.925,VALID,0,VALID,94.3097,VALID,0,VALID,22.942,VALID,44,VALID,0.221094,
2009-01-30, 03:22:04,VALID,997.928,VALID,0,VALID,94.386,VALID,0,VALID,22.9225,VALID,44,VALID,0.330859,
2009-01-30, 03:23:04,VALID,997.921,VALID,0,VALID,94.4394,VALID,0,VALID,22.9225,VALID,44,VALID,0.426953,
2009-01-30, 03:24:04,VALID,997.921,VALID,0,VALID,94.4928,VALID,0,VALID,22.9225,VALID,44,VALID,0.527734,
2009-01-30, 03:25:04,VALID,997.92,VALID,0,VALID,94.4852,VALID,0,VALID,22.9225,VALID,44,VALID,0.455469,
2009-01-30, 03:26:04,VALID,997.94,VALID,0,VALID,94.386,VALID,0,VALID,22.903,VALID,44,VALID,0.541016,
2009-01-30, 03:27:04,VALID,997.926,VALID,0,VALID,94.4165,VALID,0,VALID,22.8835,VALID,44,VALID,0.626562,
2009-01-30, 03:28:04,VALID,997.913,VALID,0,VALID,94.47,VALID,0,VALID,22.8835,VALID,44,VALID,0.655078,
2009-01-30, 03:29:04,VALID,997.918,VALID,0,VALID,94.4623,VALID,0,VALID,22.8835,VALID,44,VALID,0.585938,
2009-01-30, 03:30:04,VALID,997.914,VALID,0,VALID,94.4318,VALID,0,VALID,22.864,VALID,44,VALID,0.480859,
2009-01-30, 03:31:04,VALID,997.931,VALID,0,VALID,94.4242,VALID,0,VALID,22.864,VALID,44,VALID,0.515234,
2009-01-30, 03:32:04,VALID,997.947,VALID,0,VALID,94.3784,VALID,0,VALID,22.8445,VALID,44,VALID,0.395703,
2009-01-30, 03:33:04,VALID,997.934,VALID,0,VALID,94.4318,VALID,0,VALID,22.8445,VALID,44,VALID,0.442969,
2009-01-30, 03:34:04,VALID,997.94,VALID,0,VALID,94.5844,VALID,0,VALID,22.8445,VALID,44,VALID,0.405859,
2009-01-30, 03:35:04,VALID,997.926,VALID,0,VALID,94.6073,VALID,0,VALID,22.8462,VALID,44,VALID,0.489453,
2009-01-30, 03:36:04,VALID,997.943,VALID,0,VALID,94.676,VALID,0,VALID,22.825,VALID,44,VALID,0.508203,
2009-01-30, 03:37:04,VALID,997.938,VALID,0,VALID,94.737,VALID,0,VALID,22.8462,VALID,45,VALID,0.512109,
2009-01-30, 03:38:04,VALID,997.942,VALID,0,VALID,94.737,VALID,0,VALID,22.825,VALID,45,VALID,0.359375,
2009-01-30, 03:39:04,VALID,997.941,VALID,0,VALID,94.6988,VALID,0,VALID,22.825,VALID,48,VALID,0.357812,
2009-01-30, 03:40:04,VALID,997.964,VALID,0,VALID,94.7523,VALID,0,VALID,22.8055,VALID,49,VALID,0.182031,
2009-01-30, 03:41:04,VALID,997.951,VALID,0,VALID,94.7446,VALID,0,VALID,22.8055,VALID,49,VALID,0.320703,
2009-01-30, 03:42:04,VALID,997.977,VALID,0,VALID,94.7446,VALID,0,VALID,22.8055,VALID,49,VALID,0.397656,
2009-01-30, 03:43:04,VALID,997.961,VALID,0,VALID,94.7751,VALID,0,VALID,22.825,VALID,83,VALID,0.525,
2009-01-30, 03:44:04,VALID,998.014,VALID,0,VALID,94.676,VALID,0,VALID,22.825,VALID,107,VALID,0.527344,
2009-01-30, 03:45:04,VALID,997.98,VALID,0,VALID,94.6531,VALID,0,VALID,22.8055,VALID,106,VALID,0.344922,
2009-01-30, 03:46:04,VALID,998.028,VALID,0,VALID,94.676,VALID,0,VALID,22.8055,VALID,106,VALID,0.252344,